Regional Weather Roundup
Issued by NWS

Home | Current Version | Previous Version | Graphics & Text | Print | Product List | Glossary On
Versions: 1 2 3 4 5 6 7 8 9 10 11 12 13 14 15 16 17 18 19 20 21 22 23 24 25 26 27 28 29 30 31 32 33 34 35 36 37 38 39 40 41 42 43 44 45 46 47 48 49 50
000
ASUS43 KDTX 261210
RWRMI
MICHIGAN HOURLY REGIONAL WEATHER ROUNDUP
NATIONAL WEATHER SERVICE DETROIT/PONTIAC MI
800 AM EDT MON SEP 26 2016

NOTE: "FAIR" INDICATES FEW OR NO CLOUDS BELOW 12,000 FEET WITH NO
SIGNIFICANT WEATHER AND/OR OBSTRUCTION TO VISIBILITY.

MIZ047>049-052>055-059>063-066>070-074>076-081>083-261300-
SOUTHEAST LOWER MICHIGAN

CITY           SKY/WX    TMP DP  RH WIND       PRES   REMARKS
ADRIAN         CLOUDY    61  61 100 VRB5      29.93R
6HR MIN TEMP:  61; 6HR MAX TEMP:  67;

ALMA           LGT RAIN  61  60  98 SW7G20    29.86F
ANN ARBOR      RAIN      63  61  93 W10       29.89S FOG
BAD AXE        CLOUDY    60  59  95 SW8       29.84S
6HR MIN TEMP:  60; 6HR MAX TEMP:  61;

CARO           CLOUDY    62  58  88 SW7       29.84S
DETROIT CITY   CLOUDY    64  62  93 W7        29.87S
6HR MIN TEMP:  64; 6HR MAX TEMP:  68; 6HR PCP:  0.04;

DETROIT        LGT RAIN  64  62  93 W9        29.89R FOG
6HR MIN TEMP:  63; 6HR MAX TEMP:  68; 6HR PCP:  0.09;

FLINT          LGT RAIN  63  60  90 W12       29.88R
6HR MIN TEMP:  62; 6HR MAX TEMP:  67; 6HR PCP:  0.03;

GROSSE ILE     LGT RAIN  65  61  87 NW9G18    29.87R
6HR MIN TEMP:  65; 6HR MAX TEMP:  71;

HILLSDALE      DRIZZLE   59  55  88 W7        29.91F
HOWELL         LGT RAIN  62  61  96 W6        29.89S
6HR MIN TEMP:  62; 6HR MAX TEMP:  66;


CITY           SKY/WX    TMP DP  RH WIND       PRES   REMARKS
JACKSON        CLOUDY    61  59  93 W5        29.91S
6HR MIN TEMP:  61; 6HR MAX TEMP:  68; 6HR PCP:  0.03;

LAMBERTVILLE   HVY RAIN  63  59  87 W7G17     29.95R
6HR MIN TEMP:  63; 6HR MAX TEMP:  70;

LANSING        LGT RAIN  60  57  89 W9        29.88F
6HR MIN TEMP:  60; 6HR MAX TEMP:  66; 6HR PCP:  0.15;

LAPEER         RAIN      63  59  86 W6G16     29.88R
MASON          LGT RAIN  60  58  92 W5        29.88F
MONROE         LGT RAIN  65  61  88 W13G22    29.90R
6HR MIN TEMP:  62; 6HR MAX TEMP:  68; 6HR PCP:  0.04;

MT. CLEMENS    LGT RAIN  64  61  88 W10       29.85R
6HR MIN TEMP:  64; 6HR MAX TEMP:  67; 6HR PCP:  0.26;

PONTIAC        LGT RAIN  62  58  86 W5        29.88S FOG
6HR MIN TEMP:  62; 6HR MAX TEMP:  65; 6HR PCP:  0.47;

PORT HOPE        N/A     61  58  90 VRB3      29.80F
6HR MIN TEMP:  61; 6HR MAX TEMP:  63; 6HR PCP:  0.13;

PORT HURON     HVY RAIN  63  61  94 CALM      29.87R
TRI CITIES     LGT RAIN  62  60  93 W12       29.85F FOG
6HR MIN TEMP:  61; 6HR MAX TEMP:  64; 6HR PCP:  0.04;

MIDLAND        LGT RAIN  61  60  96 SW5       29.83F
6HR MIN TEMP:  58; 6HR MAX TEMP:  61; 6HR PCP:  0.06;

TROY           CLOUDY    64  61  88 W3        29.89S
SAGINAW HB     CLOUDY    61  59  94 SW6       29.84F
$$
MIZ043>046-050>051-056>058-064>065-071>073-077>080-261300-
SOUTHWEST LOWER MICHIGAN

CITY           SKY/WX    TMP DP  RH WIND       PRES   REMARKS
BATTLE CREEK   LGT RAIN  59  58  96 W12       29.92F
6HR MIN TEMP:  59; 6HR MAX TEMP:  67; 6HR PCP:  0.08;

BENTON HARBOR  CLOUDY    62  49  62 W14G22    29.94S
6HR MIN TEMP:  60; 6HR MAX TEMP:  69; 6HR PCP:  0.10;

BIG RAPIDS     CLOUDY    58  54  85 W8G16     29.85S
6HR MIN TEMP:  58; 6HR MAX TEMP:  63; 6HR PCP:  0.02;

COLDWATER      LGT RAIN  59  58  97 SW6       29.93S
6HR MIN TEMP:  59; 6HR MAX TEMP:  69;

FREMONT        FAIR      56  49  78 W7        29.88R
HOLLAND        CLOUDY    61  52  72 W7        29.91F
6HR MIN TEMP:  61; 6HR MAX TEMP:  69;

GRAND RAPIDS   CLOUDY    60  55  83 W12       29.90S
6HR MIN TEMP:  60; 6HR MAX TEMP:  67; 6HR PCP:  0.08;

IONIA          LGT RAIN  59  57  93 W9G18     29.87S
6HR MIN TEMP:  59; 6HR MAX TEMP:  63; 6HR PCP:  0.08;

KALAMAZOO      LGT RAIN  60  56  86 SW7       29.93R
6HR MIN TEMP:  60; 6HR MAX TEMP:  70; 6HR PCP:  0.20;

LUDINGTON      CLOUDY    59  47  65 W12G20    29.84S
6HR MIN TEMP:  59; 6HR MAX TEMP:  63; 6HR PCP:  0.03;

MARSHALL       LGT RAIN  59  59  98 SW7       29.92R
6HR MIN TEMP:  59; 6HR MAX TEMP:  67; 6HR PCP:  0.12;

MOUNT PLEASANT LGT RAIN  61  58  92 W9G18     29.84R
MUSKEGON       CLOUDY    62  49  62 W13G24    29.89S
6HR MIN TEMP:  62; 6HR MAX TEMP:  65; 6HR PCP:  0.06;

SOUTH HAVEN    CLOUDY    63  54  74 W10G18    29.95R
$$
MIZ016>042-261300-
NORTHERN LOWER MICHIGAN

CITY           SKY/WX    TMP DP  RH WIND       PRES   REMARKS
ALPENA         CLOUDY    59  56  89 S7        29.79S
6HR MIN TEMP:  57; 6HR MAX TEMP:  59; 6HR PCP:  0.64;

BEAVER ISLAND  CLOUDY    59  54  84 SW18G24   29.71R
6HR MIN TEMP:  59; 6HR MAX TEMP:  63;

BELLAIRE       CLOUDY    59  55  87 SW3       29.77R
6HR MIN TEMP:  58; 6HR MAX TEMP:  60;

CADILLAC       CLOUDY    55  52  89 W13G18    29.81F
CHARLEVOIX     CLOUDY    59  55  85 SW14G25   29.77R
FRANKFORT      CLOUDY    59  48  68 W16G23    29.80S
GAYLORD        CLOUDY    58  54  86 SW12      29.77S
6HR MIN TEMP:  55; 6HR MAX TEMP:  58; 6HR PCP:  0.20;

GRAYLING       LGT RAIN  58  57  96 SW5       29.79S
HARBOR SPRINGS CLOUDY    59  58  96 SW8       29.73S
HOUGHTON LAKE  LGT RAIN  59  57  93 SW13      29.82R
6HR MIN TEMP:  55; 6HR MAX TEMP:  59; 6HR PCP:  0.20;

MANISTEE       CLOUDY    58  47  66 W17G29    29.82S
OSCODA         LGT RAIN  59  58  98 SW9       29.80S
6HR MIN TEMP:  58; 6HR MAX TEMP:  63; 6HR PCP:  0.19;

PELLSTON       CLOUDY    59  56  89 S6        29.73S
6HR MIN TEMP:  57; 6HR MAX TEMP:  59; 6HR PCP:  0.18;

ROGERS CITY    CLOUDY    58  55  92 S8        29.77F
TRAVERSE CITY  CLOUDY    59  54  83 W9        29.77S
6HR MIN TEMP:  59; 6HR MAX TEMP:  62; 6HR PCP:  0.09;

$$
MIZ007>008-015-261300-
EASTERN UPPER MICHIGAN

CITY           SKY/WX    TMP DP  RH WIND       PRES   REMARKS
KINROSS        LGT RAIN  58  57  97 S9        29.70F
6HR MIN TEMP:  56; 6HR MAX TEMP:  58; 6HR PCP:  0.18;

MACKINAC ISLAN CLOUDY    58  58 100 S10G18    29.71S
NEWBERRY       CLOUDY    57  56  97 SW7       29.67F
6HR MIN TEMP:  57; 6HR MAX TEMP:  62; 6HR PCP:  0.05;

S. S. MARIE    CLOUDY    59  57  93 S8        29.68F
6HR MIN TEMP:  58; 6HR MAX TEMP:  60; 6HR PCP:  0.52;

MUNISING         N/A     56  52  86 SW9       29.66S
6HR MIN TEMP:  56; 6HR MAX TEMP:  66;

$$
MIZ004>006-011>014-085-261300-
CENTRAL UPPER MICHIGAN

CITY           SKY/WX    TMP DP  RH WIND       PRES   REMARKS
MANISTIQUE     CLOUDY    56  53  89 W6        29.69F
6HR MIN TEMP:  56; 6HR MAX TEMP:  65;

ESCANABA       CLOUDY    52  48  86 SW10      29.72R
6HR MIN TEMP:  52; 6HR MAX TEMP:  61;

MENOMINEE      PTCLDY    51  45  79 W8        29.77F
SAWYER-GWINN   MOCLDY    50  46  87 SW12      29.68R
$$
MIZ001>003-009>011-084-261300-
WESTERN UPPER MICHIGAN

CITY           SKY/WX    TMP DP  RH WIND       PRES   REMARKS
IRON MOUNTAIN  MOCLDY    50  44  80 SW10      29.70F
6HR MIN TEMP:  50; 6HR MAX TEMP:  58;

HOUGHTON       CLOUDY    51  46  83 SW10      29.58F
6HR MIN TEMP:  51; 6HR MAX TEMP:  58; 6HR PCP:  0.01;

COPPER HARBOR    N/A     52  48  86 W9G18     29.56F
6HR MIN TEMP:  52; 6HR MAX TEMP:  59;

IRONWOOD       LGT RAIN  49  47  93 W22G28    29.66F
6HR MIN TEMP:  49; 6HR MAX TEMP:  53; 6HR PCP:  0.03;

$$

ABBREVIATIONS USED IN REMARKS
   TC - TEMPERATURE IN CELSIUS
  WCI - WIND CHILL INDEX
   HX - HEAT INDEX
  VSB - VISIBILITY





USA.gov is the U.S. government's official web portal to all federal, state and local government web resources and services.